Portada
METAR-TAF:

METAR-TAF

Aeroports :

Taba, Egipte

latitud: 29-35-57N, longitud: 034-46-36E, altitud: 749 m

METAR: manca

Hora: 15:33 (13:33 UTC)

Pronòstic

L'informe es va fer fa 2 hores i 33 minuts, a les 11:00 UTC
Pronòstic vàlid del 08 a les 12 UTC al 09 a les 18 UTC
Vent 14 kt del Nord
Visibilitat 10 km o més
sense núvols per sota de 1500 mi sense presència de cumulonimbus.

TAF: HETB 081100Z 0812/0918 36014KT CAVOK

Observacions i pronòstics meteorològics de més de 4000 aeroports (METAR i TAF).

Les estacions disponibles són els punts grocs i vermells al mapa.

Posi el ratolí al punt desitjat per veure el nom de l'estació.

Feu clic per veure les observacions i els pronòstics meteorològics.

Per canviar el mapa: feu clic els botons verds amb una creu de color negre per apropar; al botó verd amb un guió per allunyar la imatge; o en les fletxes verdes per a mapes adjacents.


METAR-TAF: